<?xml version="1.0"?>
<gpx xmlns="http://www.topografix.com/GPX/1/1" xmlns:xsi="http://www.w3.org/2001/XMLSchema-instance" version="1.1" creator="GPX RubyGem 1.0.0 -- http://dougfales.github.io/gpx/" xsi:schemaLocation="http://www.topografix.com/GPX/1/1 http://www.topografix.com/GPX/1/1/gpx.xsd">
  <metadata>
    <name/>
    <time>2026-05-10T19:15:33+00:00</time>
    <bound minlat="90.0" minlon="180.0" maxlat="-90.0" maxlon="-180.0"/>
  </metadata>
  <trk>
    <name/>
    <trkseg>
      <trkpt lat="50.766515" lon="14.452068">
        <time>1970-01-01T00:00:00+00:00</time>
        <ele>538.0</ele>
      </trkpt>
      <trkpt lat="50.766593" lon="14.452132">
        <time>1970-01-01T00:00:00+00:00</time>
        <ele>538.0</ele>
      </trkpt>
      <trkpt lat="50.766672" lon="14.452211">
        <time>1970-01-01T00:00:00+00:00</time>
        <ele>539.0</ele>
      </trkpt>
      <trkpt lat="50.766616" lon="14.45243">
        <time>1970-01-01T00:00:00+00:00</time>
        <ele>540.0</ele>
      </trkpt>
      <trkpt lat="50.766508" lon="14.452734">
        <time>1970-01-01T00:00:00+00:00</time>
        <ele>541.0</ele>
      </trkpt>
      <trkpt lat="50.766467" lon="14.452912">
        <time>1970-01-01T00:00:00+00:00</time>
        <ele>543.0</ele>
      </trkpt>
      <trkpt lat="50.766427" lon="14.453443">
        <time>1970-01-01T00:00:00+00:00</time>
        <ele>546.0</ele>
      </trkpt>
      <trkpt lat="50.766938" lon="14.453497">
        <time>1970-01-01T00:00:00+00:00</time>
        <ele>544.0</ele>
      </trkpt>
      <trkpt lat="50.767184" lon="14.453597">
        <time>1970-01-01T00:00:00+00:00</time>
        <ele>546.0</ele>
      </trkpt>
      <trkpt lat="50.768151" lon="14.454162">
        <time>1970-01-01T00:00:00+00:00</time>
        <ele>550.0</ele>
      </trkpt>
      <trkpt lat="50.768615" lon="14.454372">
        <time>1970-01-01T00:00:00+00:00</time>
        <ele>554.0</ele>
      </trkpt>
      <trkpt lat="50.768827" lon="14.454478">
        <time>1970-01-01T00:00:00+00:00</time>
        <ele>556.0</ele>
      </trkpt>
      <trkpt lat="50.769015" lon="14.454623">
        <time>1970-01-01T00:00:00+00:00</time>
        <ele>559.0</ele>
      </trkpt>
      <trkpt lat="50.769213" lon="14.455397">
        <time>1970-01-01T00:00:00+00:00</time>
        <ele>563.0</ele>
      </trkpt>
      <trkpt lat="50.769259" lon="14.455485">
        <time>1970-01-01T00:00:00+00:00</time>
        <ele>564.0</ele>
      </trkpt>
      <trkpt lat="50.769377" lon="14.455555">
        <time>1970-01-01T00:00:00+00:00</time>
        <ele>566.0</ele>
      </trkpt>
      <trkpt lat="50.769614" lon="14.45541">
        <time>1970-01-01T00:00:00+00:00</time>
        <ele>572.0</ele>
      </trkpt>
      <trkpt lat="50.769881" lon="14.455065">
        <time>1970-01-01T00:00:00+00:00</time>
        <ele>576.0</ele>
      </trkpt>
      <trkpt lat="50.769957" lon="14.454915">
        <time>1970-01-01T00:00:00+00:00</time>
        <ele>575.0</ele>
      </trkpt>
      <trkpt lat="50.769957" lon="14.454915">
        <time>1970-01-01T00:00:00+00:00</time>
        <ele>575.0</ele>
      </trkpt>
      <trkpt lat="50.769881" lon="14.455065">
        <time>1970-01-01T00:00:00+00:00</time>
        <ele>576.0</ele>
      </trkpt>
      <trkpt lat="50.769614" lon="14.45541">
        <time>1970-01-01T00:00:00+00:00</time>
        <ele>572.0</ele>
      </trkpt>
      <trkpt lat="50.769377" lon="14.455555">
        <time>1970-01-01T00:00:00+00:00</time>
        <ele>566.0</ele>
      </trkpt>
      <trkpt lat="50.769259" lon="14.455485">
        <time>1970-01-01T00:00:00+00:00</time>
        <ele>564.0</ele>
      </trkpt>
      <trkpt lat="50.769213" lon="14.455397">
        <time>1970-01-01T00:00:00+00:00</time>
        <ele>563.0</ele>
      </trkpt>
      <trkpt lat="50.769015" lon="14.454623">
        <time>1970-01-01T00:00:00+00:00</time>
        <ele>559.0</ele>
      </trkpt>
      <trkpt lat="50.768827" lon="14.454478">
        <time>1970-01-01T00:00:00+00:00</time>
        <ele>556.0</ele>
      </trkpt>
      <trkpt lat="50.768615" lon="14.454372">
        <time>1970-01-01T00:00:00+00:00</time>
        <ele>554.0</ele>
      </trkpt>
      <trkpt lat="50.768151" lon="14.454162">
        <time>1970-01-01T00:00:00+00:00</time>
        <ele>550.0</ele>
      </trkpt>
      <trkpt lat="50.767184" lon="14.453597">
        <time>1970-01-01T00:00:00+00:00</time>
        <ele>546.0</ele>
      </trkpt>
      <trkpt lat="50.766938" lon="14.453497">
        <time>1970-01-01T00:00:00+00:00</time>
        <ele>544.0</ele>
      </trkpt>
      <trkpt lat="50.766427" lon="14.453443">
        <time>1970-01-01T00:00:00+00:00</time>
        <ele>546.0</ele>
      </trkpt>
      <trkpt lat="50.766467" lon="14.452912">
        <time>1970-01-01T00:00:00+00:00</time>
        <ele>543.0</ele>
      </trkpt>
      <trkpt lat="50.766508" lon="14.452734">
        <time>1970-01-01T00:00:00+00:00</time>
        <ele>541.0</ele>
      </trkpt>
      <trkpt lat="50.766616" lon="14.45243">
        <time>1970-01-01T00:00:00+00:00</time>
        <ele>540.0</ele>
      </trkpt>
      <trkpt lat="50.766672" lon="14.452211">
        <time>1970-01-01T00:00:00+00:00</time>
        <ele>539.0</ele>
      </trkpt>
      <trkpt lat="50.766593" lon="14.452132">
        <time>1970-01-01T00:00:00+00:00</time>
        <ele>538.0</ele>
      </trkpt>
      <trkpt lat="50.766515" lon="14.452068">
        <time>1970-01-01T00:00:00+00:00</time>
        <ele>538.0</ele>
      </trkpt>
    </trkseg>
  </trk>
</gpx>
